Regional Weather Roundup
Issued by NWS

Home | Current Version | Previous Version | Text Only | Print | Product List | Glossary Off
Versions: 1 2 3 4 5 6 7 8 9 10 11 12 13 14 15 16 17 18 19 20 21 22 23 24 25 26 27 28 29 30 31 32 33 34 35 36 37 38 39 40 41 42 43 44 45 46 47 48 49 50

000
ASUS43 KFSD 271202
RWRSD

WEATHER ROUNDUP FOR SOUTH DAKOTA
NATIONAL WEATHER SERVICE SIOUX FALLS SD
600 AM CST SAT DEC 27 2014

NOTE: "FAIR" INDICATES FEW OR NO CLOUDS BELOW 12,000 FEET WITH NO
SIGNIFICANT WEATHER AND/OR OBSTRUCTIONS TO VISIBILITY.


SDZ001>005-009-010-012>017-271300-
NORTHWEST AND NORTH CENTRAL SOUTH DAKOTA

CITY           SKY/WX    TMP DP  RH WIND       PRES   REMARKS
BUFFALO          N/A     23  18  81 W12       30.00F WCI  12
FAITH            N/A     18  12  77 W9        30.09F WCI   7
MOBRIDGE       FOG        2  -1  88 E6        30.10F VSB 1/4 WCI  -9
$$

SDZ012>016-024>037-041>051-057-063-072>074-271300-
SOUTHWEST AND SOUTH CENTRAL SOUTH DAKOTA

CITY           SKY/WX    TMP DP  RH WIND       PRES   REMARKS
RAPID CTY ARPT CLOUDY    11   6  81 N3        30.10S
PIERRE         CLOUDY     8   5  87 SW7       30.16S WCI  -3
CUSTER         MOCLDY    12   3  67 W5        29.97F WCI   4
ELLSWORTH AFB  MOCLDY    14   7  73 N3        30.09S
PHILIP         PTCLDY     7   3  84 W10       30.16S WCI  -8
PINE RIDGE     PTCLDY     7   3  84 W8        30.13R WCI  -6
WINNER         FAIR      11   7  84 NW8       30.16S WCI  -1
$$

SDZ004>011-016>023-039-040-271300-
NORTHEAST SOUTH DAKOTA

CITY           SKY/WX    TMP DP  RH WIND       PRES   REMARKS
ABERDEEN       CLEAR      2  -2  83 SW5       30.17F WCI  -8
WATERTOWN      MOCLDY     9   4  80 NW12      30.11S WCI  -6
SISSETON         N/A      7   3  84 NW6       30.16S WCI  -3
$$

SDZ017-020-022-023-036>040-048>070-271300-
SOUTHEAST SOUTH DAKOTA

CITY           SKY/WX    TMP DP  RH WIND       PRES   REMARKS
SIOUX FALLS    FLURRIES  18  14  84 NW12      30.13R WCI   5
HURON          PTCLDY     3   0  87 NW8       30.19S WCI -10
MITCHELL       CLOUDY    11   7  84 NW14      30.20R WCI  -5
YANKTON        PTCLDY    16  10  79 NW14      30.19R WCI   1
$$

ABBREVIATIONS USED IN REMARKS
   TC - TEMPERATURE IN CELSIUS
  WCI - WIND CHILL INDEX
   HX - HEAT INDEX
  VSB - VISIBILITY



USA.gov is the U.S. government's official web portal to all federal, state and local government web resources and services.